GW4039 Weather Reports


Display with metric or nautical units.
time (UTC)temp
F
wind
direction
speed
MPH
gust
MPH
rain 1hr
in
rain 24hr
in
rain mn
in
humidity
%
barometer
mb
20260504081512 0 213 0.0 0.0 0.00 0.00 0.00 1010.0
20260504081008 0 190 0.0 1.0 0.00 0.00 0.00 1010.1
20260504080504 0 227 1.0 1.0 0.00 0.00 0.00 1009.9
20260504050317 0 220 0.0 0.0 0.00 0.00 0.00 1010.4
20260504045814 0 220 0.0 0.0 0.00 0.00 0.00 1010.5
20260504045314 0 216 1.0 1.0 0.00 0.00 0.00 1010.4
20260504044811 0 210 0.0 0.0 0.00 0.00 0.00 1010.7
20260504044309 0 210 0.0 0.0 0.00 0.00 0.00 1010.9
20260504043806 0 185 1.0 2.0 0.00 0.00 0.00 1010.9
20260504043303 0 194 0.0 1.0 0.00 0.00 0.00 1010.8
20260504042801 0 217 0.0 1.0 0.00 0.00 0.00 1010.7
20260504042257 0 222 1.0 2.0 0.00 0.00 0.00 1011.0
20260504041753 0 230 2.0 3.0 0.00 0.00 0.00 1011.1
20260504041249 0 206 2.0 3.0 0.00 0.00 0.00 1011.0
20260504040745 0 213 1.0 2.0 0.00 0.00 0.00 1011.1
20260504040243 0 215 1.0 1.0 0.00 0.00 0.00 1010.8
20260504035739 0 194 2.0 2.0 0.00 0.00 0.00 1011.0
20260504035236 0 220 1.0 1.0 0.00 0.00 0.00 1010.9
20260504034734 0 236 6.0 8.0 0.00 0.00 0.00 1010.9
20260504034231 0 191 2.0 2.0 0.00 0.00 0.00 1010.9
20260504033729 0 262 3.0 3.0 0.00 0.00 0.00 1011.1
20260504033226 0 227 1.0 1.0 0.00 0.00 0.00 1010.9
20260504032722 0 251 0.0 0.0 0.00 0.00 0.00 1010.8
20260504032220 0 204 0.0 0.0 0.00 0.00 0.00 1010.9
20260504031716 0 183 0.0 1.0 0.00 0.00 0.00 1011.1
20260504031214 0 226 1.0 1.0 0.00 0.00 0.00 1011.0
20260504030709 0 235 3.0 3.0 0.00 0.00 0.00 1011.1
20260504030207 0 268 2.0 3.0 0.00 0.00 0.00 1011.1
20260504025703 0 204 0.0 1.0 0.00 0.00 0.00 1011.1
20260504025200 0 203 0.0 1.0 0.00 0.00 0.00 1011.0
20260504024657 0 225 1.0 2.0 0.00 0.00 0.00 1011.1
20260504024153 0 155 1.0 1.0 0.00 0.00 0.00 1011.2
20260504023650 0 228 1.0 1.0 0.00 0.00 0.00 1011.2
20260504023146 0 218 0.0 1.0 0.00 0.00 0.00 1011.1
20260504022643 0 273 2.0 2.0 0.00 0.00 0.00 1011.2
20260504022138 0 232 0.0 0.0 0.00 0.00 0.00 1011.2
20260504021637 0 234 1.0 1.0 0.00 0.00 0.00 1011.0
20260504021133 0 239 1.0 2.0 0.00 0.00 0.00 1011.0
20260504020630 0 233 0.0 0.0 0.00 0.00 0.00 1011.1
20260504020126 0 239 0.0 0.0 0.00 0.00 0.00 1011.1
20260504015623 0 247 1.0 1.0 0.00 0.00 0.00 1011.2
20260504015119 0 238 1.0 1.0 0.00 0.00 0.00 1011.2
20260504014615 0 225 0.0 1.0 0.00 0.00 0.00 1011.1
20260504014113 0 238 1.0 1.0 0.00 0.00 0.00 1010.9
20260504013610 0 224 1.0 1.0 0.00 0.00 0.00 1011.3
20260504013107 0 221 1.0 1.0 0.00 0.00 0.00 1010.8
20260504012604 0 224 0.0 1.0 0.00 0.00 0.00 1011.2
20260504012102 0 222 1.0 1.0 0.00 0.00 0.00 1011.0
20260504011559 0 226 1.0 1.0 0.00 0.00 0.00 1011.0
20260504011055 0 221 1.0 1.0 0.00 0.00 0.00 1011.2
20260504010550 0 248 1.0 1.0 0.00 0.00 0.00 1011.0
20260504010047 0 239 1.0 1.0 0.00 0.00 0.00 1010.9
20260504005543 0 340 2.0 2.0 0.00 0.00 0.00 1010.8
20260504005041 0 213 0.0 0.0 0.00 0.00 0.00 1010.9
20260504004539 0 228 1.0 1.0 0.00 0.00 0.00 1010.9
20260504004036 0 228 0.0 0.0 0.00 0.00 0.00 1011.1
20260504003532 0 238 1.0 1.0 0.00 0.00 0.00 1010.8
20260504003029 0 228 0.0 0.0 0.00 0.00 0.00 1010.7
20260504002525 0 228 0.0 1.0 0.00 0.00 0.00 1010.8
20260504002023 0 228 0.0 0.0 0.00 0.00 0.00 1010.7
20260504001521 0 222 0.0 1.0 0.00 0.00 0.00 1010.8
20260504001017 0 210 0.0 0.0 0.00 0.00 0.00 1010.6
20260504000514 0 217 0.0 0.0 0.00 0.00 0.00 1010.6
20260504000011 0 231 2.0 2.0 0.00 0.00 0.00 1010.7
20260503235509 0 254 3.0 3.0 0.00 0.00 0.00 1010.6
20260503235006 0 238 1.0 1.0 0.00 0.00 0.00 1010.5
20260503234503 0 227 2.0 2.0 0.00 0.00 0.00 1010.5
20260503234002 0 323 7.0 9.0 0.00 0.00 0.00 1010.5
20260503233457 0 259 2.0 4.0 0.00 0.00 0.00 1010.4
20260503232954 0 258 2.0 3.0 0.00 0.00 0.00 1010.3
20260503232451 0 266 5.0 6.0 0.00 0.00 0.00 1010.1
20260503231949 0 258 2.0 2.0 0.00 0.00 0.00 1010.1
20260503231446 0 16 3.0 4.0 0.00 0.00 0.00 1010.2
20260503230942 0 241 3.0 4.0 0.00 0.00 0.00 1009.9
20260503230439 0 215 4.0 4.0 0.00 0.00 0.00 1010.0
20260503225937 0 223 2.0 2.0 0.00 0.00 0.00 1009.9
20260503225433 0 291 2.0 3.0 0.00 0.00 0.00 1009.8
20260503224929 0 269 6.0 9.0 0.00 0.00 0.00 1009.8
20260503224426 0 245 5.0 7.0 0.00 0.00 0.00 1009.6
20260503223924 0 241 5.0 9.0 0.00 0.00 0.00 1009.7
20260503223422 0 261 2.0 3.0 0.00 0.00 0.00 1009.6
20260503222917 0 223 0.0 1.0 0.00 0.00 0.00 1009.6
20260503222416 0 302 5.0 7.0 0.00 0.00 0.00 1009.8
20260503221914 0 281 4.0 4.0 0.00 0.00 0.00 1009.6
20260503221412 0 221 2.0 2.0 0.00 0.00 0.00 1009.7
20260503220908 0 258 1.0 3.0 0.00 0.00 0.00 1009.7
20260503220404 0 271 4.0 4.0 0.00 0.00 0.00 1009.7
20260503215901 0 208 2.0 3.0 0.00 0.00 0.00 1009.6
20260503215358 0 28 2.0 3.0 0.00 0.00 0.00 1009.5
20260503214856 0 231 6.0 8.0 0.00 0.00 0.00 1009.6
20260503214353 0 118 6.0 7.0 0.00 0.00 0.00 1009.9
20260503213850 0 256 2.0 3.0 0.00 0.00 0.00 1009.6
20260503213348 0 219 6.0 8.0 0.00 0.00 0.00 1009.7
20260503212845 0 178 1.0 2.0 0.00 0.00 0.00 1009.7
20260503212343 0 318 4.0 7.0 0.00 0.00 0.00 1009.7
20260503211839 0 209 3.0 4.0 0.00 0.00 0.00 1009.7
20260503211336 0 265 1.0 3.0 0.00 0.00 0.00 1009.8
20260503210831 0 285 4.0 6.0 0.00 0.00 0.00 1009.9
20260503210329 0 290 6.0 11.0 0.00 0.00 0.00 1009.9
20260503205824 0 284 5.0 7.0 0.00 0.00 0.00 1009.9
20260503205321 0 262 2.0 3.0 0.00 0.00 0.00 1009.8
20260503204817 0 344 7.0 9.0 0.00 0.00 0.00 1009.8
20260503204315 0 296 5.0 7.0 0.00 0.00 0.00 1010.1
20260503203812 0 248 4.0 6.0 0.00 0.00 0.00 1010.0
20260503203309 0 317 9.0 10.0 0.00 0.00 0.00 1009.9
20260503202806 0 327 6.0 8.0 0.00 0.00 0.00 1010.0
20260503202304 0 307 11.0 14.0 0.00 0.00 0.00 1010.0
20260503201802 0 265 5.0 8.0 0.00 0.00 0.00 1010.3
20260503201259 0 3 12.0 14.0 0.00 0.00 0.00 1010.1
20260503200756 0 280 10.0 14.0 0.00 0.00 0.00 1010.4
20260503200252 0 278 6.0 9.0 0.00 0.00 0.00 1010.1
20260503195750 0 255 4.0 7.0 0.00 0.00 0.00 1010.0
20260503195246 0 250 2.0 3.0 0.00 0.00 0.00 1010.1
20260503194743 0 278 6.0 8.0 0.00 0.00 0.00 1010.3
20260503194239 0 258 6.0 8.0 0.00 0.00 0.00 1010.3
20260503193735 0 247 5.0 6.0 0.00 0.00 0.00 1010.4
20260503193231 0 259 3.0 3.0 0.00 0.00 0.00 1010.5
20260503192727 0 230 5.0 6.0 0.00 0.00 0.00 1010.4
20260503192222 0 247 5.0 7.0 0.00 0.00 0.00 1010.4
20260503191720 0 309 7.0 10.0 0.00 0.00 0.00 1010.4
20260503191217 0 279 6.0 9.0 0.00 0.00 0.00 1010.4
20260503190714 0 243 2.0 3.0 0.00 0.00 0.00 1010.6
20260503190210 0 226 8.0 11.0 0.00 0.00 0.00 1010.6
20260503185708 0 256 9.0 13.0 0.00 0.00 0.00 1010.7
20260503185203 0 269 4.0 6.0 0.00 0.00 0.00 1010.9
20260503184657 0 203 1.0 1.0 0.00 0.00 0.00 1010.8
20260503184154 0 276 4.0 6.0 0.00 0.00 0.00 1010.8
20260503183650 0 267 6.0 8.0 0.00 0.00 0.00 1010.8
20260503183148 0 240 7.0 9.0 0.00 0.00 0.00 1010.8
20260503182645 0 270 4.0 6.0 0.00 0.00 0.00 1010.8
20260503182144 0 305 8.0 10.0 0.00 0.00 0.00 1010.9
20260503181635 0 263 3.0 4.0 0.00 0.00 0.00 1011.0
20260503181132 0 339 7.0 9.0 0.00 0.00 0.00 1011.1
20260503180629 0 285 6.0 9.0 0.00 0.00 0.00 1010.9
20260503180127 0 260 3.0 3.0 0.00 0.00 0.00 1011.0
20260503175623 0 338 4.0 6.0 0.00 0.00 0.00 1011.2
20260503175120 0 184 4.0 6.0 0.00 0.00 0.00 1011.0
20260503174617 0 231 2.0 2.0 0.00 0.00 0.00 1011.0
20260503174114 0 276 5.0 7.0 0.00 0.00 0.00 1011.0
20260503173609 0 292 6.0 11.0 0.00 0.00 0.00 1011.1
20260503173106 0 243 4.0 6.0 0.00 0.00 0.00 1011.1
20260503172603 0 313 9.0 11.0 0.00 0.00 0.00 1011.1
20260503172100 0 276 5.0 9.0 0.00 0.00 0.00 1011.0
20260503171556 0 285 5.0 6.0 0.00 0.00 0.00 1011.2
20260503171054 0 226 2.0 2.0 0.00 0.00 0.00 1011.5
20260503170550 0 275 5.0 7.0 0.00 0.00 0.00 1011.5
20260503150937 0 270 3.0 3.0 0.00 0.00 0.00 1012.4
20260503150433 0 355 4.0 6.0 0.00 0.00 0.00 1012.2
20260503131314 0 255 4.0 4.0 0.00 0.00 0.00 1012.6
20260503130812 0 252 2.0 3.0 0.00 0.00 0.00 1012.6
20260503130309 0 336 11.0 15.0 0.00 0.00 0.00 1012.5
20260503110650 0 193 1.0 2.0 0.00 0.00 0.00 1012.3
20260503110148 0 199 0.0 0.0 0.00 0.00 0.00 1012.4
20260503100114 0 74 1.0 1.0 0.00 0.00 0.00 1012.0